#timestamp,LO_Frequency,Hit,StdDev 
1634670015.2,286046998.3,N
1634670035.0,286047001.0,N
1634670035.9,286047001.0,N
1634670055.8,286047000.5,N
1634670075.6,286047000.9,N
1634670095.4,286046998.4,N
1634670115.3,286046998.2,N
1634670135.1,286046998.9,N
1634670155.9,286046999.3,N
1634670175.7,286047001.1,N
1634670195.5,286046998.4,N
1634670215.4,286046998.8,N
1634670235.2,286046996.8,N
1634670255.1,286046996.7,N
1634670256.0,286046996.7,N
1634670275.8,286046996.6,N
1634670295.6,286046996.7,N
1634670315.5,286046997.5,N
1634670335.3,286046997.7,N
1634670355.1,286046997.7,N
1634670375.9,286046997.1,N
1634670395.7,286046997.2,N
1634670415.6,286046997.3,N
1634670435.4,286046997.0,N
1634670455.2,286046996.7,N
1634670475.1,286046997.3,N
1634670476.0,286046997.3,N
1634670495.8,286046999.5,N
1634670515.6,286046997.7,N
1634670535.5,286046999.1,N
1634670555.3,286046999.2,N
1634670575.2,286046996.6,N
1634670595.9,286046999.3,N
1634670615.7,286046996.8,N
1634670635.6,286046997.1,N
1634670655.4,286046996.6,Y
1634670675.0,286046998.6,P
1634670675.9,286046998.6,P
1634670695.8,286046998.1,P
1634670715.6,286046998.7,Y
1634670735.4,286047000.6,P
1634670755.3,286047000.6,N
1634670775.1,286047000.4,N
1634670795.9,286047000.0,N
1634670815.7,286047002.7,Y
1634670835.5,286047000.0,P
1634670855.4,286046999.9,P
1634670875.2,286047001.2,P
1634670895.1,286046998.7,N
1634670896.0,286046998.7,N
1634670915.8,286046999.3,N
1634670935.6,286046999.5,N
1634670955.5,286046999.1,N
1634670975.3,286046999.3,N
1634670995.2,286046999.2,N
1634671015.9,286046998.8,N
1634671035.7,286046998.8,N
1634671055.6,286046999.3,N
1634671075.4,286046998.9,N
1634671095.3,286046998.8,N
1634671115.1,286046998.4,N
1634671135.8,286047000.8,N
1634671155.7,286047000.9,N
1634671175.5,286046998.1,N
1634671195.4,286047001.1,N
1634671215.2,286047000.8,N
1634671235.0,286047000.6,N
1634671235.9,286047000.6,N
1634671255.8,286046998.2,N
1634671275.6,286046998.7,N
1634671295.5,286046998.7,N
1634671315.3,286046999.5,N
1634671335.1,286046998.9,N
1634671355.9,286046998.3,N
1634671375.7,286046999.3,N
1634671395.5,286046998.7,N
1634671415.4,286046998.7,N
1634671435.2,286046998.4,N
1634671455.1,286046999.4,N
1634671456.0,286046999.4,N
1634671475.8,286046996.5,Y
1634671495.6,286046999.3,P
1634671515.5,286046998.6,P
1634671535.3,286046999.0,P
1634671555.2,286046996.9,Y
1634671575.9,286047001.2,P
1634671595.7,286047000.6,N
1634671615.6,286047001.0,N
1634671635.4,286046999.8,N
1634671655.2,286047000.0,N
1634671675.1,286047000.0,N
1634671676.0,286047000.0,N
1634671695.8,286047000.9,N
1634671715.7,286047000.7,N
1634671735.5,286047000.7,N
1634671755.3,286047001.2,N
1634671775.2,286047000.8,N
1634671795.0,286047001.1,N
1634671795.9,286047001.1,N
1634671815.7,286046999.8,N
1634671835.6,286047000.6,N
1634671855.4,286047000.8,N
1634671875.3,286047000.9,N
1634671895.1,286046999.7,N
1634671896.0,286046999.7,N
1634671915.8,286047000.2,N
1634671935.7,286047000.1,N
1634671955.5,286047000.5,N
1634671975.4,286047000.5,N
1634671995.2,286047000.6,N
1634672015.0,286047001.2,N
1634672015.9,286047001.2,N
1634672035.8,286047001.1,N
1634672055.6,286047000.8,N
1634672075.4,286047000.8,N
1634672095.3,286047000.5,N
1634672115.1,286047000.0,N
1634672135.9,286047000.9,N
1634672155.7,286046998.8,N
1634672175.5,286046998.1,Y
1634672195.4,286046998.2,P
1634672215.2,286046998.8,N
1634672235.0,286046998.7,N
1634672235.9,286046998.7,N
1634672255.8,286046998.5,N
1634672275.6,286046998.7,N
1634672295.5,286046999.6,N
1634672315.3,286046997.0,Y
1634672335.1,286046996.7,P
1634672355.9,286046996.7,N
1634672375.7,286046999.6,N
1634672395.6,286046997.0,N
1634672415.4,286046996.5,N
1634672435.2,286046999.6,N
1634672455.1,286046996.9,N
1634672456.0,286046996.9,N
1634672475.8,286046999.1,N
1634672495.6,286046996.9,N
1634672515.5,286046999.0,N
1634672535.3,286046997.2,N
1634672555.2,286046997.8,N
1634672575.9,286046996.7,N
1634672595.7,286046996.5,Y
1634672615.6,286047002.3,P
1634672635.4,286047002.7,N
1634672655.2,286047002.0,N
1634672675.1,286047002.6,N
1634672676.0,286047002.6,N
1634672695.8,286046999.7,N
1634672715.7,286047000.2,N
1634672735.5,286047002.4,N
1634672755.3,286047002.6,N
1634672775.2,286047002.6,N
1634672795.0,286047001.9,N
1634672795.9,286047001.9,N
1634672815.8,286047002.4,N
1634672835.6,286047001.4,N
1634672855.4,286046999.7,N
1634672875.3,286047002.3,N
1634672895.1,286047002.2,N
1634672915.9,286047002.7,N
1634672935.7,286047002.5,N
1634672955.5,286047002.1,N
1634672975.4,286047001.5,N
1634672995.2,286047001.6,N
1634673015.0,286047001.5,N
1634673015.9,286047001.5,N
1634673035.8,286047003.9,Y
1634673055.6,286047002.4,P
1634673075.5,286047000.3,N
1634673095.3,286046999.7,N
1634673115.1,286047002.6,N
1634673135.9,286047001.4,N
1634673155.7,286047001.9,N
1634673175.5,286047001.8,N
1634673195.4,286047004.0,Y
1634673215.2,286047002.7,P
1634673235.1,286047002.8,P
1634673236.0,286047002.8,P
1634673255.8,286047000.0,N
1634673275.6,286047000.2,N
1634673295.5,286047002.4,N
1634673315.3,286047002.7,N
1634673335.1,286046999.7,N
1634673355.9,286047000.2,N
1634673375.7,286047000.9,N
1634673395.6,286047001.2,N
1634673415.4,286047001.1,N
1634673435.2,286046998.9,N
1634673455.1,286046998.5,N
1634673456.0,286046998.5,N
1634673475.8,286047000.7,N
1634673495.7,286047000.6,N
1634673515.2,286047000.4,N
1634673535.0,286047002.3,N
1634673535.9,286047002.3,N
1634673555.8,286047000.1,N
1634673575.6,286047002.2,N
1634673595.5,286047000.4,N
